Location: New Frontier Mobile Home Park
(32.8448°N, 116.9675°W)
Time: 22:05:15
(UTC+00:00)

Cosmos 2369 Rocket - Pass Details

Date: 14 July 2020
Orbit: 830 x 851 km, 71.0° (Epoch: 05 August)

Event Time Altitude Azimuth Distance (km) Brightness Sun altitude
Rises 07:51:46 0° 328° (NNW) 3,380 6.1 -35.6°
Reaches altitude 10° 07:54:24 10° 319° (NW) 2,445 5.1 -35.6°
Enters shadow 07:56:33 21° 304° (WNW) 1,789 4.1 -35.6°
